period_start,C,m1,H,J0,J1,J2,J3,J4,J5,JA,JB,JC,JD,JJ,JK,JN,#
2016-04-05 00:04:28,0.16,7.27,0.00,12.20,16.90,21.10,15.04,51.27,1006.36,2072.58,1574.16,1812.27,2054.22,600.30,612.64,33.61,0000 0000 0000 0000 000000
2016-04-05 00:09:29,0.24,7.28,0.00,12.24,16.93,21.11,15.06,51.45,1006.27,2072.24,1572.07,1810.79,2052.63,599.74,611.94,33.66,0000 0000 0000 0000 000000
2016-04-05 00:14:30,0.16,7.29,0.00,12.32,16.96,21.13,15.05,51.44,1006.28,2072.11,1570.61,1809.61,2051.30,599.81,611.92,33.71,0000 0000 0000 0000 000000
2016-04-05 00:19:32,0.15,7.30,0.00,12.37,16.98,21.11,15.09,51.38,1006.24,2072.01,1569.42,1808.55,2050.06,600.05,612.07,33.77,0000 0000 0000 0000 000000
2016-04-05 00:24:33,0.17,7.31,0.00,12.37,17.01,21.12,15.08,51.34,1006.20,2072.01,1568.36,1807.51,2048.80,600.18,611.93,33.82,0000 0000 0000 0000 000000
2016-04-05 00:29:34,0.21,7.32,0.00,12.34,17.04,21.16,15.04,51.37,1006.16,2072.00,1566.74,1806.33,2047.42,599.55,611.52,33.87,0000 0000 0000 0000 000000
2016-04-05 00:34:35,0.21,7.33,0.00,12.36,17.08,21.22,15.08,51.40,1006.18,2072.00,1564.96,1804.97,2046.26,600.08,612.05,33.92,0000 0000 0000 0000 000000
2016-04-05 00:39:36,0.22,7.34,0.00,12.42,17.10,21.23,15.13,51.45,1006.24,2071.97,1563.30,1803.72,2044.79,600.03,611.94,33.97,0000 0000 0000 0000 000000
2016-04-05 00:44:38,0.21,7.35,0.00,12.49,17.13,21.30,15.07,51.35,1006.26,2071.96,1561.64,1802.56,2043.47,599.98,611.68,34.02,0000 0000 0000 0000 000000
2016-04-05 00:49:39,0.21,7.37,0.00,12.53,17.15,21.27,15.04,51.52,1006.25,2071.79,1559.54,1801.24,2041.90,600.16,611.77,34.07,0000 0000 0000 0000 000000
2016-04-05 00:54:40,0.19,7.38,0.00,12.57,17.18,21.30,15.14,51.83,1006.35,2071.74,1557.84,1800.02,2040.57,600.18,611.63,34.12,0000 0000 0000 0000 000000
2016-04-05 00:59:41,0.16,7.38,0.00,12.63,17.21,21.33,15.12,51.49,1006.36,2071.36,1556.26,1798.77,2039.25,600.22,611.70,34.17,0000 0000 0000 0000 000000
2016-04-05 01:04:43,0.18,7.39,0.00,12.66,17.24,21.39,15.05,51.77,1006.36,2071.06,1554.72,1797.49,2037.77,600.12,611.40,34.22,0000 0000 0000 0000 000000
2016-04-05 01:09:44,0.13,7.40,0.00,12.67,17.28,21.45,15.07,51.72,1006.36,2071.02,1554.15,1796.57,2036.71,599.87,611.22,34.27,0000 0000 0000 0000 000000
2016-04-05 01:14:45,0.18,7.41,0.00,12.66,17.32,21.40,15.06,51.66,1006.36,2071.00,1552.78,1795.60,2035.57,600.14,611.51,34.32,0000 0000 0000 0000 000000
2016-04-05 01:19:46,0.21,7.42,0.00,12.66,17.36,21.45,15.11,51.74,1006.36,2071.00,1551.00,1794.35,2034.12,599.88,611.21,34.37,0000 0000 0000 0000 000000
2016-04-05 01:24:47,0.25,7.43,0.00,12.72,17.41,21.49,15.16,51.87,1006.36,2070.98,1548.97,1792.94,2032.64,600.59,611.87,34.42,0000 0000 0000 0000 000000
2016-04-05 01:29:49,0.19,7.44,0.00,12.74,17.45,21.52,15.07,51.77,1006.36,2070.91,1547.39,1791.76,2031.15,600.01,611.20,34.47,0000 0000 0000 0000 000000
2016-04-05 01:34:50,0.23,7.45,0.00,12.72,17.49,21.54,15.07,51.67,1006.36,2070.48,1545.30,1790.26,2029.38,599.99,611.47,34.52,0000 0000 0000 0000 000000
2016-04-05 01:39:52,0.40,7.47,0.00,12.76,17.53,21.54,15.05,51.77,1006.36,2070.04,1541.95,1788.13,2026.97,599.98,611.19,34.57,0000 0000 0000 0000 000000
2016-04-05 01:44:53,0.43,7.49,0.00,12.85,17.56,21.63,15.08,51.90,1006.36,2070.02,1538.24,1785.80,2024.41,600.03,610.98,34.62,0000 0000 0000 0000 000000
2016-04-05 01:49:55,0.39,7.51,0.00,12.84,17.60,21.62,15.08,51.90,1006.36,2070.00,1535.09,1783.55,2021.83,599.93,610.95,34.68,0000 0000 0000 0000 000000
2016-04-05 01:54:56,0.39,7.53,0.00,12.82,17.64,21.66,15.04,51.67,1006.36,2070.00,1532.08,1781.47,2019.47,600.16,611.20,34.73,0000 0000 0000 0000 000000
2016-04-05 01:59:57,0.34,7.55,0.00,12.87,17.68,21.66,15.19,51.73,1006.36,2069.99,1529.18,1779.58,2017.29,600.58,611.49,34.78,0000 0000 0000 0000 000000
2016-04-05 02:04:58,0.33,7.57,0.00,12.93,17.71,21.67,15.06,51.80,1006.36,2069.94,1526.65,1777.77,2015.33,599.82,610.54,34.83,0000 0000 0000 0000 000000
2016-04-05 02:09:59,0.31,7.59,0.00,12.89,17.75,21.74,15.06,51.90,1006.36,2069.56,1523.72,1775.78,2013.02,600.24,611.16,34.88,0000 0000 0000 0000 000000
2016-04-05 02:15:00,0.30,7.60,0.00,12.91,17.79,21.80,14.97,51.74,1006.36,2069.11,1521.16,1773.97,2010.96,599.66,610.54,34.93,0000 0000 0000 0000 000000
2016-04-05 02:20:01,0.30,7.61,0.00,13.01,17.82,21.77,15.07,51.78,1006.36,2069.01,1518.64,1772.23,2008.94,600.33,610.97,34.98,0000 0000 0000 0000 000000
2016-04-05 02:25:03,0.32,7.63,0.00,13.04,17.86,21.80,15.05,51.70,1006.36,2069.00,1516.15,1770.54,2007.05,600.17,610.87,35.03,0000 0000 0000 0000 000000
2016-04-05 02:30:04,0.33,7.65,0.00,13.01,17.89,21.89,15.05,51.86,1006.36,2069.00,1513.63,1768.77,2005.09,600.02,610.63,35.08,0000 0000 0000 0000 000000
2016-04-05 02:35:06,0.29,7.66,0.00,13.06,17.92,21.88,15.00,51.62,1006.36,2068.98,1511.21,1767.15,2003.18,599.88,610.39,35.13,0000 0000 0000 0000 000000
2016-04-05 02:40:07,0.23,7.68,0.00,13.15,17.95,21.93,15.08,51.88,1006.36,2068.86,1509.42,1765.70,2001.57,600.06,610.37,35.18,0000 0000 0000 0000 000000
2016-04-05 02:45:08,0.16,7.69,0.00,13.16,17.98,21.96,15.11,51.83,1006.37,2068.59,1507.80,1764.51,2000.19,600.78,611.13,35.23,0000 0000 0000 0000 000000
2016-04-05 02:50:09,0.19,7.70,0.00,13.18,18.01,22.01,15.03,51.85,1006.36,2068.16,1506.05,1763.19,1998.71,599.96,610.23,35.28,0000 0000 0000 0000 000000
2016-04-05 02:55:11,0.22,7.71,0.00,13.27,18.03,22.04,14.99,51.73,1006.37,2068.05,1504.35,1761.88,1997.21,599.84,609.90,35.33,0000 0000 0000 0000 000000
2016-04-05 03:00:12,0.25,7.72,0.00,13.30,18.06,22.05,15.00,51.84,1006.38,2068.02,1502.59,1760.62,1995.75,600.02,610.12,35.38,0000 0000 0000 0000 000000
2016-04-05 03:05:14,0.19,7.73,0.00,13.29,18.09,22.08,15.02,51.83,1006.37,2068.00,1501.14,1759.45,1994.44,599.89,609.91,35.43,0000 0000 0000 0000 000000
2016-04-05 03:10:16,0.23,7.74,0.00,13.33,18.12,22.12,15.05,51.92,1006.38,2068.00,1499.40,1758.04,1992.91,600.19,610.09,35.48,0000 0000 0000 0000 000000
2016-04-05 03:15:17,0.26,7.75,0.00,13.41,18.16,22.17,15.07,51.94,1006.44,2067.99,1497.61,1756.77,1991.50,600.11,610.03,35.53,0000 0000 0000 0000 000000
2016-04-05 03:20:18,0.22,7.76,0.00,13.44,18.19,22.23,15.06,51.89,1006.45,2067.97,1495.92,1755.59,1990.02,599.92,609.62,35.58,0000 0000 0000 0000 000000
2016-04-05 03:25:20,0.19,7.77,0.00,13.44,18.23,22.20,15.01,51.58,1006.44,2067.93,1494.65,1754.37,1988.71,600.09,609.92,35.64,0000 0000 0000 0000 000000
2016-04-05 03:30:21,0.13,7.79,0.00,13.49,18.28,22.28,15.00,51.66,1006.66,2067.52,1492.99,1753.09,1987.35,599.76,609.38,35.69,0000 0000 0000 0000 000000
2016-04-05 03:35:22,0.23,7.79,0.00,13.58,18.32,22.31,14.98,51.83,1006.79,2067.09,1491.30,1751.78,1985.76,599.91,609.60,35.74,0000 0000 0000 0000 000000
2016-04-05 03:40:24,0.21,7.80,0.00,13.59,18.37,22.33,15.05,51.94,1006.84,2067.04,1489.77,1750.60,1984.49,600.07,609.81,35.79,0000 0000 0000 0000 000000
2016-04-05 03:45:25,0.21,7.82,0.00,13.60,18.41,22.34,15.06,51.69,1006.85,2067.00,1488.16,1749.28,1983.12,600.12,609.73,35.84,0000 0000 0000 0000 000000
2016-04-05 03:50:26,0.24,7.83,0.00,13.65,18.46,22.40,15.05,51.67,1006.84,2067.00,1486.56,1747.94,1981.68,600.06,609.54,35.89,0000 0000 0000 0000 000000
2016-04-05 03:55:27,0.23,7.84,0.00,13.72,18.50,22.41,14.96,51.72,1006.85,2066.96,1484.88,1746.64,1980.14,600.07,609.47,35.94,0000 0000 0000 0000 000000
2016-04-05 04:00:29,0.21,7.85,0.00,13.74,18.54,22.44,15.00,51.66,1006.83,2066.74,1483.29,1745.37,1978.63,599.69,609.14,35.99,0000 0000 0000 0000 000000
2016-04-05 04:05:30,0.20,7.86,0.00,13.76,18.58,22.48,15.02,51.70,1006.83,2066.22,1481.15,1743.92,1976.99,599.93,609.18,36.04,0000 0000 0000 0000 000000
2016-04-05 04:10:31,0.22,7.87,0.00,13.82,18.62,22.53,14.93,51.55,1006.84,2066.05,1479.51,1742.59,1975.55,599.65,608.93,36.09,0000 0000 0000 0000 000000
2016-04-05 04:15:32,0.24,7.89,0.00,13.87,18.66,22.56,15.01,51.73,1006.85,2066.01,1477.71,1741.29,1974.00,599.92,609.21,36.14,0000 0000 0000 0000 000000
2016-04-05 04:20:34,0.26,7.90,0.00,13.85,18.71,22.64,15.00,51.77,1006.85,2066.00,1475.87,1739.83,1972.48,600.02,609.21,36.19,0000 0000 0000 0000 000000
2016-04-05 04:25:35,0.21,7.91,0.00,13.87,18.75,22.64,14.96,51.74,1006.85,2065.98,1474.22,1738.60,1970.97,599.83,608.92,36.24,0000 0000 0000 0000 000000
2016-04-05 04:30:37,0.22,7.92,0.00,13.95,18.79,22.70,14.95,51.62,1006.85,2065.94,1472.77,1737.44,1969.65,600.00,608.92,36.29,0000 0000 0000 0000 000000
2016-04-05 04:35:38,0.14,7.93,0.00,13.99,18.83,22.73,15.00,51.72,1006.85,2065.61,1471.16,1736.16,1968.22,600.24,609.07,36.34,0000 0000 0000 0000 000000
2016-04-05 04:40:39,0.17,7.94,0.00,13.97,18.87,22.78,14.93,51.62,1006.85,2065.12,1469.86,1734.95,1966.86,599.89,608.78,36.39,0000 0000 0000 0000 000000
2016-04-05 04:45:41,0.28,7.95,0.00,13.98,18.91,22.72,14.92,51.68,1006.85,2065.01,1467.92,1733.57,1965.27,599.87,608.74,36.44,0000 0000 0000 0000 000000
2016-04-05 04:50:42,0.22,7.96,0.00,14.07,18.94,22.81,14.99,51.52,1006.85,2065.00,1466.09,1732.22,1963.67,599.67,608.41,36.50,0000 0000 0000 0000 000000
2016-04-05 04:55:43,0.22,7.98,0.00,14.11,18.98,22.86,15.02,51.67,1006.85,2064.99,1464.59,1730.97,1962.35,600.06,608.76,36.55,0000 0000 0000 0000 000000
2016-04-05 05:00:45,0.24,7.99,0.00,14.07,19.01,22.96,15.02,51.83,1006.87,2064.97,1462.88,1729.74,1960.87,599.99,608.66,36.60,0000 0000 0000 0000 000000
2016-04-05 05:05:46,0.23,8.00,0.00,14.09,19.04,22.97,14.93,51.75,1006.87,2064.93,1461.26,1728.52,1959.50,599.79,608.45,36.65,0000 0000 0000 0000 000000
2016-04-05 05:10:47,0.24,8.01,0.00,14.16,19.08,22.98,15.00,51.73,1006.86,2064.68,1459.15,1727.13,1957.73,600.30,608.74,36.70,0000 0000 0000 0000 000000
2016-04-05 05:15:48,0.26,8.02,0.00,14.24,19.11,22.96,14.98,51.65,1006.87,2064.22,1456.96,1725.62,1956.00,599.92,608.31,36.75,0000 0000 0000 0000 000000
2016-04-05 05:20:50,0.22,8.04,0.00,14.23,19.14,23.08,15.02,51.77,1006.88,2064.05,1455.13,1724.30,1954.47,600.23,608.61,36.80,0000 0000 0000 0000 000000
2016-04-05 05:25:51,0.23,8.05,0.00,14.21,19.17,23.07,14.96,51.66,1006.88,2064.00,1453.38,1722.99,1952.97,599.53,607.95,36.85,0000 0000 0000 0000 000000
2016-04-05 05:30:53,0.25,8.06,0.00,14.26,19.19,23.10,15.03,51.75,1006.87,2064.00,1451.75,1721.76,1951.63,600.26,608.62,36.90,0000 0000 0000 0000 000000
2016-04-05 05:35:54,0.19,8.07,0.00,14.33,19.22,23.13,15.00,51.64,1006.88,2064.00,1450.23,1720.71,1950.37,600.58,608.82,36.95,0000 0000 0000 0000 000000
2016-04-05 05:40:55,0.22,8.08,0.00,14.33,19.23,23.17,14.96,51.58,1006.92,2063.98,1448.57,1719.63,1949.08,599.97,608.18,37.00,0000 0000 0000 0000 000000
2016-04-05 05:45:56,0.22,8.09,0.00,14.32,19.24,23.24,15.01,51.52,1006.97,2063.96,1446.94,1718.50,1947.78,599.89,608.21,37.05,0000 0000 0000 0000 000000
2016-04-05 05:50:58,0.20,8.10,0.00,14.33,19.26,23.22,14.95,51.47,1007.02,2063.89,1445.31,1717.42,1946.53,599.76,607.96,37.10,0000 0000 0000 0000 000000
2016-04-05 05:55:59,0.16,8.11,0.00,14.42,19.27,23.27,15.01,51.42,1007.18,2063.64,1443.79,1716.39,1945.42,599.78,607.98,37.15,0000 0000 0000 0000 000000
2016-04-05 06:01:01,0.17,8.12,0.00,14.43,19.27,23.33,14.98,51.42,1007.29,2063.49,1442.30,1715.38,1944.18,599.79,608.03,37.20,0000 0000 0000 0000 000000
2016-04-05 06:06:02,0.25,8.13,0.00,14.43,19.29,23.35,14.94,51.22,1007.30,2063.26,1440.42,1713.98,1942.61,599.93,608.04,37.25,0000 0000 0000 0000 000000
2016-04-05 06:11:03,0.27,8.15,0.00,14.43,19.29,23.34,14.96,51.20,1007.25,2063.08,1438.40,1712.58,1941.00,600.19,608.31,37.30,0000 0000 0000 0000 000000
2016-04-05 06:16:05,0.39,8.16,0.00,14.50,19.32,23.38,14.94,51.29,1007.31,2063.13,1435.78,1710.90,1939.03,599.95,607.98,37.35,0000 0000 0000 0000 000000
2016-04-05 06:21:06,0.42,8.18,0.00,14.51,19.32,23.44,15.04,51.52,1007.30,2063.04,1432.65,1708.70,1936.62,599.84,607.88,37.40,0000 0000 0000 0000 000000
2016-04-05 06:26:07,0.45,8.21,0.00,14.49,19.34,23.43,14.96,51.39,1007.27,2063.02,1429.38,1706.42,1934.09,600.19,608.16,37.45,0000 0000 0000 0000 000000
2016-04-05 06:31:09,0.34,8.23,0.00,14.53,19.36,23.43,15.03,51.52,1007.32,2063.01,1426.87,1704.65,1932.06,600.33,608.25,37.51,0000 0000 0000 0000 000000
2016-04-05 06:36:10,0.30,8.24,0.00,14.62,19.38,23.47,14.98,51.53,1007.33,2063.01,1424.60,1703.03,1930.26,600.31,608.10,37.56,0000 0000 0000 0000 000000
2016-04-05 06:41:11,0.30,8.26,0.00,14.66,19.40,23.50,15.03,51.38,1007.34,2063.01,1422.64,1701.56,1928.55,600.04,607.53,37.61,0000 0000 0000 0000 000000
2016-04-05 06:46:13,0.30,8.27,0.00,14.63,19.43,23.60,14.98,51.56,1007.34,2063.00,1420.58,1699.91,1926.72,600.20,608.02,37.66,0000 0000 0000 0000 000000
2016-04-05 06:51:14,0.25,8.29,0.00,14.61,19.47,23.54,14.93,51.63,1007.34,2062.99,1418.83,1698.55,1925.17,599.80,607.60,37.71,0000 0000 0000 0000 000000
2016-04-05 06:56:16,0.19,8.30,0.00,14.64,19.50,23.48,14.96,51.61,1007.34,2062.98,1417.40,1697.48,1923.95,599.80,607.56,37.76,0000 0000 0000 0000 000000
2016-04-05 07:01:17,0.14,8.31,0.00,14.72,19.53,23.50,14.99,51.63,1007.34,2062.97,1416.39,1696.75,1923.03,599.71,607.28,37.81,0000 0000 0000 0000 000000
2016-04-05 07:06:19,0.14,8.32,0.00,14.69,19.56,23.53,15.07,51.63,1007.34,2062.90,1415.21,1696.00,1922.11,600.16,607.82,37.86,0000 0000 0000 0000 000000
2016-04-05 07:11:20,0.09,8.32,0.00,14.67,19.59,23.58,14.96,51.56,1007.34,2062.43,1414.28,1695.15,1921.22,599.98,607.74,37.91,0000 0000 0000 0000 000000
2016-04-05 07:16:22,0.16,8.33,0.00,14.73,19.62,23.63,15.02,51.59,1007.34,2062.11,1412.99,1694.22,1920.24,600.08,607.62,37.96,0000 0000 0000 0000 000000
2016-04-05 07:21:23,0.20,8.34,0.00,14.80,19.64,23.60,14.94,51.57,1007.34,2062.02,1411.63,1693.17,1919.14,600.13,607.57,38.01,0000 0000 0000 0000 000000
2016-04-05 07:26:24,0.17,8.34,0.00,14.78,19.67,23.61,14.95,51.62,1007.34,2062.00,1410.50,1692.32,1918.09,599.91,607.40,38.06,0000 0000 0000 0000 000000
2016-04-05 07:31:26,0.16,8.36,0.00,14.79,19.69,23.62,14.97,51.54,1007.34,2061.99,1409.43,1691.47,1917.14,599.86,607.35,38.11,0000 0000 0000 0000 000000
2016-04-05 07:36:27,0.17,8.36,0.00,14.82,19.71,23.68,14.95,51.58,1007.35,2061.98,1408.20,1690.56,1916.13,600.20,607.52,38.16,0000 0000 0000 0000 000000
2016-04-05 07:41:28,0.16,8.37,0.00,14.90,19.73,23.71,15.01,51.52,1007.36,2061.97,1406.88,1689.77,1915.12,600.11,607.33,38.21,0000 0000 0000 0000 000000
2016-04-05 07:46:30,0.17,8.38,0.00,14.88,19.75,23.72,14.98,51.52,1007.36,2061.93,1405.63,1688.88,1914.10,600.05,607.44,38.26,0000 0000 0000 0000 000000
2016-04-05 07:51:31,0.17,8.39,0.00,14.86,19.77,23.72,15.00,51.46,1007.35,2061.58,1403.86,1687.92,1912.99,600.29,607.57,38.31,0000 0000 0000 0000 000000
2016-04-05 07:56:32,0.14,8.40,0.00,14.89,19.79,23.75,14.95,51.42,1007.35,2061.30,1402.41,1687.02,1911.96,599.79,607.09,38.37,0000 0000 0000 0000 000000
2016-04-05 08:01:34,0.16,8.41,0.00,14.98,19.80,23.74,14.98,51.47,1007.35,2061.12,1401.22,1686.14,1911.00,599.95,607.09,38.42,0000 0000 0000 0000 000000
2016-04-05 08:06:35,0.15,8.42,0.00,14.97,19.82,23.75,14.96,51.48,1007.37,2061.04,1400.13,1685.32,1910.07,599.94,607.05,38.47,0000 0000 0000 0000 000000
2016-04-05 08:11:36,0.14,8.42,0.00,14.94,19.83,23.77,15.00,51.42,1007.37,2061.01,1399.12,1684.72,1909.20,600.21,607.34,38.52,0000 0000 0000 0000 000000
2016-04-05 08:16:38,0.14,8.43,0.00,14.99,19.85,23.79,14.95,51.35,1007.40,2061.01,1398.05,1683.98,1908.30,599.90,606.96,38.57,0000 0000 0000 0000 000000
2016-04-05 08:21:39,0.17,8.44,0.00,15.09,19.87,23.89,14.93,51.33,1007.48,2061.01,1396.92,1683.11,1907.45,600.15,607.03,38.62,0000 0000 0000 0000 000000
2016-04-05 08:26:41,0.15,8.45,0.00,15.08,19.88,24.04,15.01,51.46,1007.51,2061.00,1395.93,1682.36,1906.59,600.20,606.99,38.67,0000 0000 0000 0000 000000
2016-04-05 08:31:42,0.13,8.45,0.00,15.03,19.89,24.10,15.09,51.40,1007.64,2060.99,1394.96,1681.68,1905.75,600.05,607.17,38.72,0000 0000 0000 0000 000000
2016-04-05 08:36:44,0.17,8.46,0.00,15.07,19.92,24.19,15.06,51.36,1007.70,2060.98,1393.70,1680.89,1904.80,600.22,607.27,38.77,0000 0000 0000 0000 000000
2016-04-05 08:41:45,0.16,8.47,0.00,15.19,19.92,24.24,14.92,51.26,1007.81,2060.95,1392.55,1680.03,1903.88,599.97,606.82,38.82,0000 0000 0000 0000 000000
2016-04-05 08:46:46,0.17,8.48,0.00,15.22,19.94,24.28,15.03,51.33,1007.82,2060.95,1391.27,1679.18,1902.91,599.73,606.55,38.87,0000 0000 0000 0000 000000
2016-04-05 08:51:47,0.15,8.49,0.00,15.18,19.95,24.28,14.93,51.21,1007.83,2060.81,1390.01,1678.42,1901.95,599.78,606.59,38.92,0000 0000 0000 0000 000000
2016-04-05 08:56:49,0.12,8.49,0.00,15.17,19.97,24.31,14.93,51.06,1007.83,2060.37,1388.81,1677.62,1900.97,599.98,606.92,38.97,0000 0000 0000 0000 000000
2016-04-05 09:01:50,0.13,8.50,0.00,15.20,19.97,24.40,15.03,51.11,1007.83,2060.14,1387.53,1676.83,1900.00,600.15,606.97,39.02,0000 0000 0000 0000 000000
2016-04-05 09:06:51,0.15,8.51,0.00,15.22,19.99,24.39,14.91,51.10,1007.83,2060.08,1386.22,1676.01,1899.07,600.19,606.98,39.07,0000 0000 0000 0000 000000
2016-04-05 09:11:53,0.20,8.52,0.00,15.18,19.99,24.40,14.94,51.03,1007.83,2060.06,1384.95,1675.20,1898.21,599.90,606.83,39.12,0000 0000 0000 0000 000000
2016-04-05 09:16:54,0.17,8.53,0.00,15.13,19.99,24.32,15.02,51.02,1007.84,2060.04,1383.73,1674.49,1897.29,600.17,607.18,39.17,0000 0000 0000 0000 000000
2016-04-05 09:21:55,0.16,8.53,0.00,15.11,20.00,24.35,14.97,51.02,1007.85,2060.03,1382.54,1673.72,1896.39,599.92,606.98,39.23,0000 0000 0000 0000 000000
2016-04-05 09:26:56,0.14,8.54,0.00,15.15,20.01,24.36,14.95,50.99,1007.84,2060.03,1381.38,1672.95,1895.52,599.93,606.88,39.28,0000 0000 0000 0000 000000
2016-04-05 09:31:58,0.18,8.55,0.00,15.12,20.01,24.30,14.96,51.01,1007.84,2060.03,1380.14,1672.08,1894.46,599.80,606.85,39.33,0000 0000 0000 0000 000000
2016-04-05 09:36:59,0.18,8.56,0.00,15.05,20.00,24.33,14.95,50.87,1007.85,2060.01,1379.04,1671.32,1893.54,599.82,606.96,39.38,0000 0000 0000 0000 000000
2016-04-05 09:42:01,0.18,8.57,0.00,15.02,19.99,24.24,14.94,50.88,1007.84,2060.01,1377.67,1670.45,1892.64,599.94,607.17,39.43,0000 0000 0000 0000 000000
2016-04-05 09:47:02,0.13,8.58,0.00,15.07,19.99,24.13,14.98,50.93,1007.84,2060.01,1376.63,1669.85,1891.81,599.92,607.03,39.48,0000 0000 0000 0000 000000
2016-04-05 09:52:03,0.20,8.59,0.00,15.03,19.98,24.13,14.95,50.89,1007.84,2060.02,1375.30,1669.00,1890.83,599.69,607.04,39.53,0000 0000 0000 0000 000000
2016-04-05 09:57:05,0.17,8.60,0.00,14.96,19.96,24.08,15.05,50.89,1007.83,2060.01,1373.78,1668.15,1889.96,600.13,607.48,39.58,0000 0000 0000 0000 000000
2016-04-05 10:02:06,0.15,8.60,0.00,14.92,19.94,24.14,14.93,50.71,1007.84,2060.01,1372.80,1667.56,1889.12,599.97,607.49,39.63,0000 0000 0000 0000 000000
2016-04-05 10:07:07,0.16,8.61,0.00,14.94,19.92,24.08,14.96,50.70,1007.84,2060.03,1371.54,1666.91,1888.36,600.07,607.46,39.68,0000 0000 0000 0000 000000
2016-04-05 10:12:09,0.17,8.62,0.00,14.93,19.91,24.06,14.91,50.76,1007.84,2060.06,1370.21,1666.07,1887.61,599.74,607.08,39.73,0000 0000 0000 0000 000000
2016-04-05 10:17:10,0.20,8.63,0.00,14.87,19.88,24.05,14.87,50.58,1007.85,2060.20,1369.20,1665.36,1886.67,599.64,607.22,39.78,0000 0000 0000 0000 000000
2016-04-05 10:22:12,0.25,8.64,0.00,14.82,19.86,24.07,14.98,50.78,1007.87,2060.54,1367.72,1664.66,1885.81,599.77,607.57,39.83,0000 0000 0000 0000 000000
2016-04-05 10:27:13,0.17,8.65,0.00,14.84,19.84,24.00,14.95,50.79,1007.88,2060.89,1366.47,1663.94,1884.89,599.77,607.35,39.88,0000 0000 0000 0000 000000
2016-04-05 10:32:14,0.18,8.66,0.00,14.84,19.82,24.01,14.99,50.84,1007.85,2060.97,1365.09,1663.10,1884.03,600.06,607.65,39.93,0000 0000 0000 0000 000000
2016-04-05 10:37:16,0.10,8.67,0.00,14.76,19.79,23.95,14.99,50.77,1007.84,2060.96,1364.27,1662.73,1883.14,599.85,607.65,39.98,0000 0000 0000 0000 000000
2016-04-05 10:42:17,0.10,8.68,0.00,14.71,19.77,23.91,14.93,50.67,1007.85,2060.97,1363.96,1662.02,1882.56,599.80,607.72,40.03,0000 0000 0000 0000 000000
2016-04-05 10:47:18,0.17,8.68,0.00,14.72,19.74,23.84,15.05,50.76,1007.85,2060.99,1362.88,1661.30,1881.79,600.29,608.16,40.08,0000 0000 0000 0000 000000
2016-04-05 10:52:19,0.14,8.69,0.00,14.70,19.72,23.85,14.93,50.76,1007.88,2060.99,1361.75,1660.69,1880.98,600.05,608.01,40.14,0000 0000 0000 0000 000000
2016-04-05 10:57:20,0.18,8.70,0.00,14.61,19.68,23.89,15.00,50.73,1007.95,2060.99,1360.38,1659.92,1880.07,600.27,608.36,40.19,0000 0000 0000 0000 000000
2016-04-05 11:02:22,0.19,8.71,0.00,14.55,19.65,23.88,15.02,50.78,1007.97,2060.99,1358.91,1659.06,1879.12,599.92,608.29,40.24,0000 0000 0000 0000 000000
2016-04-05 11:07:23,0.17,8.72,0.00,14.54,19.62,23.77,15.00,50.83,1007.99,2061.03,1357.92,1658.34,1878.27,599.80,608.12,40.29,0000 0000 0000 0000 000000
2016-04-05 11:12:24,0.17,8.73,0.00,14.52,19.58,23.77,15.04,50.81,1007.93,2061.09,1356.73,1657.84,1877.52,600.14,608.42,40.34,0000 0000 0000 0000 000000
2016-04-05 11:17:25,0.11,8.73,0.00,14.43,19.55,23.76,14.98,50.67,1007.89,2061.23,1355.91,1657.07,1876.87,600.00,608.62,40.39,0000 0000 0000 0000 000000
2016-04-05 11:22:27,0.31,8.74,0.00,14.38,19.51,23.63,14.95,50.70,1007.87,2061.74,1354.56,1656.45,1876.01,600.00,608.77,40.44,0000 0000 0000 0000 000000
2016-04-05 11:27:28,0.15,8.76,0.00,14.37,19.47,23.58,15.00,50.77,1007.89,2061.95,1353.25,1655.80,1875.12,599.96,608.62,40.49,0000 0000 0000 0000 000000
2016-04-05 11:32:29,0.16,8.77,0.00,14.34,19.43,23.53,14.96,50.69,1007.89,2061.99,1352.12,1655.04,1874.35,600.03,608.75,40.54,0000 0000 0000 0000 000000
2016-04-05 11:37:31,0.08,8.77,0.00,14.28,19.39,23.58,14.97,50.66,1007.85,2061.99,1351.72,1654.64,1873.92,600.27,609.00,40.59,0000 0000 0000 0000 000000
2016-04-05 11:42:32,0.16,8.78,0.00,14.22,19.35,23.53,15.06,50.83,1007.84,2062.00,1350.66,1653.97,1873.07,600.16,609.03,40.64,0000 0000 0000 0000 000000
2016-04-05 11:47:33,0.20,8.79,0.00,14.22,19.31,23.45,15.03,50.71,1007.83,2062.02,1349.14,1653.11,1872.19,600.32,609.33,40.69,0000 0000 0000 0000 000000
2016-04-05 11:52:35,0.13,8.79,0.00,14.17,19.27,23.37,14.97,50.68,1007.84,2062.38,1348.53,1652.89,1871.77,599.63,608.65,40.74,0000 0000 0000 0000 000000
2016-04-05 11:57:36,0.20,8.80,0.00,14.09,19.23,23.33,15.03,50.75,1007.84,2062.69,1347.64,1652.07,1871.02,600.09,609.33,40.79,0000 0000 0000 0000 000000
2016-04-05 12:02:37,0.11,8.81,0.00,14.06,19.19,23.20,14.94,50.69,1007.84,2062.93,1346.94,1651.72,1870.22,599.92,609.21,40.84,0000 0000 0000 0000 000000
2016-04-05 12:07:39,0.12,8.82,0.00,14.05,19.15,23.23,15.00,50.58,1007.84,2062.99,1346.08,1651.03,1869.79,599.68,609.00,40.89,0000 0000 0000 0000 000000
2016-04-05 12:12:40,0.15,8.83,0.00,14.00,19.11,23.28,15.01,50.77,1007.85,2062.99,1345.07,1650.52,1869.03,599.86,609.12,40.94,0000 0000 0000 0000 000000
2016-04-05 12:17:42,0.13,8.83,0.00,13.94,19.07,23.15,15.03,50.71,1007.87,2063.01,1344.00,1650.00,1868.28,600.04,609.66,40.99,0000 0000 0000 0000 000000
2016-04-05 12:22:43,0.16,8.84,0.00,13.91,19.03,23.19,15.03,50.83,1007.84,2063.09,1343.04,1649.26,1867.78,599.75,609.35,41.05,0000 0000 0000 0000 000000
2016-04-05 12:27:44,0.17,8.85,0.00,13.90,18.99,23.14,14.97,50.80,1007.85,2063.54,1342.14,1648.95,1867.03,599.98,609.57,41.10,0000 0000 0000 0000 000000
2016-04-05 12:32:45,0.21,8.86,0.00,13.82,18.94,23.08,14.98,50.68,1007.84,2063.86,1341.29,1648.14,1866.32,599.76,609.53,41.15,0000 0000 0000 0000 000000
2016-04-05 12:37:47,0.13,8.87,0.00,13.76,18.90,23.05,15.04,50.88,1007.85,2063.98,1340.30,1647.78,1865.70,600.04,609.93,41.20,0000 0000 0000 0000 000000
2016-04-05 12:42:48,0.14,8.87,0.00,13.74,18.86,23.00,15.00,50.76,1007.84,2063.99,1339.34,1647.04,1865.01,599.81,609.65,41.25,0000 0000 0000 0000 000000
2016-04-05 12:47:49,0.18,8.88,0.00,13.73,18.82,22.91,15.09,50.85,1007.83,2064.02,1338.12,1646.42,1864.23,600.14,610.12,41.30,0000 0000 0000 0000 000000
2016-04-05 12:52:51,0.11,8.89,0.00,13.67,18.77,22.90,15.13,50.88,1007.83,2064.03,1337.06,1645.97,1863.58,600.34,610.56,41.35,0000 0000 0000 0000 000000
2016-04-05 12:57:52,0.19,8.90,0.00,13.61,18.73,22.86,15.07,50.92,1007.83,2064.18,1336.00,1645.15,1862.89,599.98,610.19,41.40,0000 0000 0000 0000 000000